| time (UTC) | temp C | wind direction | speed KPH | gust KPH | rain 1hr cm | rain 24hr cm | rain mn cm | humidity % | barometer mb |
| 20260506050719 | 15 | 45 | 0.0 | 1.6 | 0.00 | 4.01 | 0.00 | 85 | 1014.6 |
| 20260506043919 | 15 | 63 | 0.0 | 3.2 | 0.00 | 4.01 | 0.00 | 84 | 1014.5 |
| 20260506042520 | 15 | 62 | 1.6 | 8.0 | 0.00 | 4.01 | 0.00 | 84 | 1014.4 |
| 20260506041819 | 15 | 60 | 0.0 | 8.0 | 0.00 | 4.01 | 0.00 | 84 | 1014.7 |
| 20260506040420 | 15 | 60 | 0.0 | 3.2 | 0.00 | 4.01 | 0.00 | 85 | 1014.6 |
| 20260506035719 | 15 | 52 | 0.0 | 6.4 | 0.00 | 4.01 | 4.01 | 84 | 1014.5 |
| 20260506035019 | 14 | 27 | 0.0 | 6.4 | 0.00 | 4.01 | 4.01 | 84 | 1014.5 |
| 20260506034319 | 14 | 5 | 1.6 | 8.0 | 0.00 | 4.01 | 4.01 | 84 | 1014.8 |
| 20260506032919 | 14 | 12 | 1.6 | 6.4 | 0.00 | 4.01 | 4.01 | 84 | 1014.8 |
| 20260506032219 | 14 | 16 | 1.6 | 6.4 | 0.00 | 4.01 | 4.01 | 84 | 1014.8 |
| 20260506031520 | 14 | 3 | 1.6 | 6.4 | 0.00 | 4.01 | 4.01 | 85 | 1014.5 |
| 20260506030819 | 14 | 353 | 1.6 | 8.0 | 0.00 | 4.01 | 4.01 | 85 | 1014.6 |
| 20260506030119 | 14 | 21 | 3.2 | 8.0 | 0.00 | 4.01 | 4.01 | 86 | 1014.5 |
| 20260506025419 | 14 | 52 | 0.0 | 3.2 | 0.00 | 4.01 | 4.01 | 85 | 1014.6 |
| 20260506024019 | 14 | 52 | 0.0 | 3.2 | 0.00 | 4.01 | 4.01 | 85 | 1014.9 |
| 20260506023319 | 14 | 53 | 1.6 | 3.2 | 0.00 | 4.01 | 4.01 | 85 | 1014.7 |
| 20260506022619 | 13 | 54 | 1.6 | 3.2 | 0.00 | 4.01 | 4.01 | 86 | 1014.6 |
| 20260506021919 | 13 | 55 | 1.6 | 6.4 | 0.00 | 4.01 | 4.01 | 86 | 1014.4 |
| 20260506014624 | 14 | 90 | 0.0 | 6.4 | 4.01 | 4.01 | 4.01 | 84 | 1014.4 |
| 20260506013924 | 14 | 90 | 0.0 | 6.4 | 4.01 | 4.01 | 4.01 | 83 | 1014.3 |
| 20260506013224 | 14 | 101 | 1.6 | 8.0 | 4.01 | 4.01 | 4.01 | 82 | 1014.3 |
| 20260506011124 | 15 | 54 | 0.0 | 3.2 | 4.01 | 4.01 | 4.01 | 82 | 1014.2 |